Rbgn^[z[y[W
メイン
   新天体発見情報
     Comet C/2024 U1 (PANSTARRS)
投稿するにはまず登録を

スレッド表示 | 新しいものから 前のトピック | 次のトピック | 下へ
投稿者 スレッド
佐藤裕久
投稿日時: 2024-11-16 13:41
モデレータ
登録日: 2005-6-12
居住地: 日本
投稿: 2661
オンライン
Comet C/2024 U1 (PANSTARRS)

R. Weryk (西オンタリオ大学,物理および天文学科)の通報によると、10月30日、HaleakalaのPan-
STARRS1 1.8-m Ritchey-Chretien反射望遠鏡で得た画像から彗星を発見した。
1".3-1".5のシーイングで得た画像では、2".0(半値全幅:FWHM)の集光した頭部が見えるが尾はない。
WerykとR. WainscoatがMaunakeaの3.6-m Canada-France-Hawaii 望遠鏡に依頼したフォローアップ
観測は、2024年11月3.5日UT、A. Acohidoが3枚の40-秒gri-band画像を得た。0".9のシーイングで
得た最良の画像は、1".4FWHM)の集光した頭部が見え、p.a.0-60°にわたって5"の広いトレイルが
ある。
Werykは後に、2023年11月13.6日(22.2-23.4等)、23.5日(21.7-22.2等)、2023年12月6.5日(21.6-
22.1等)と13.4日(21.3-22.0等HaleakalaのPan-STARRS2 1.8-m Ritchey-Chretien 反射望遠鏡と
2023年11月25日(21.6-22.5)、2024年1月3.4日(21.0-21.5)、2024年10月24.6日(20.4)、Pan-STARRS1
で得た彗星の発見前の画像(すべて恒星状に見える)を確認した。
小惑星センターのNEOCP webpageに公表後、佐藤英貴氏(東京都文京区)の観測によると、10月31.74〜
31.75日、60-秒CCD露出16枚のスタック, 0.51-m f/6.8 アストログラフ, Siding Spring, NSW, 
オーストラリア, 遠隔操作: 恒星状に見えるだけ、4".3の円形範囲で測定した光度は20.4等であった。

彗星機能の報告は次のとおり、

OC   Date        Reporter            Coma    Tail   PA   Comet     Date
                                                        (T/P)   Reported
F51  2024-10-30  R. Weryk            0".7                 T   2024-11-03.03
T14  2024-11-03  R. Weryk            0".5      5"         T   2024-11-03.52
157  2024-11-03  R. Haver            6"                   P   2024-11-03.46

発見位置は次のとおり(PCCP P121pLi)、

     2024 UT             R.A. (2000) Decl.       Mag.
     Oct. 30.55150    5 36 20.77   + 1 46 49.3   20.8
          30.56424    5 36 20.01   + 1 46 40.7   20.4
          30.57693    5 36 19.24   + 1 46 32.1   20.4
          30.58963    5 36 18.45   + 1 46 23.8   20.7

MPCの楕円軌道要素、位置推算表は次のとおり、

Orbital elements:
    C/2024 U1 (PANSTARRS)                                                       
Epoch 2024 Oct. 17.0 TT = JDT 2460600.5                                         
T 2024 June 30.61077 TT                                 Rudenko                 
q   4.8360455            (2000.0)            P               Q                  
z  +0.0013460      Peri.  188.07265     +0.08356407     +0.62007298             
 +/-0.0000182      Node   270.24867     +0.95230706     +0.18085360             
e   0.9934905      Incl.  128.73132     +0.29347625     -0.76341435             
From 66 observations 2023 Nov. 13-2024 Nov. 5, mean residual 0".3.              
                                                                                
Ephemeris:
Date    TT    R. A. (2000) Decl.     Delta      r    Elong.  Phase   m1
2024 10 06    05 55 31.5 +06 13 52   4.5656  4.8951   103.4    11.5  20.2
...
2024 10 21    05 45 05.9 +03 33 20   4.3457  4.9145   119.6    10.1  20.1
...
2024 10 29    05 37 52.6 +02 04 15   4.2486  4.9260   128.3     9.1  20.1
...
2024 11 04    05 31 44.5 +00 56 56   4.1880  4.9350   134.6     8.2  20.0
2024 11 05    05 30 39.8 +00 45 44   4.1790  4.9366   135.6     8.1  20.0
2024 11 06    05 29 34.2 +00 34 33   4.1704  4.9382   136.6     7.9  20.0
...
2024 11 12    05 22 42.8 -00 31 58   4.1261  4.9478   142.5     7.0  20.0
...
2024 11 20    05 12 54.2 -01 57 57   4.0884  4.9612   149.0     5.9  20.0
...
2024 12 05    04 53 19.2 -04 23 44   4.0890  4.9884   153.2     5.1  20.0

(MPEC 2024-V81、CBET 5471)

スレッド表示 | 新しいものから 前のトピック | 次のトピック | トップ

投稿するにはまず登録を
 
© 1999 Tsutomu Seki.